Andalusia, AL

10:17 AM CST on November 21, 2017 (GMT -0600)
Andalusia

Weather History for K79J - April, 2014

Change the Weather History Date:

Wednesday, April 16, 2014

  Actual Average (KCEW) Record (KCEW)
Temperature  
Mean Temperature 54 °F -  
Max Temperature 70 °F 80 °F 90 °F (2013)
Min Temperature 39 °F 51 °F 32 °F (2008)
Degree Days  
Heating Degree Days 10    
Growing Degree Days 4 (Base 50)    
Moisture  
Dew Point 35 °F    
Average Humidity 51    
Maximum Humidity 71    
Minimum Humidity 27    
Precipitation  
Precipitation 0.00 in - - ()
Sea Level Pressure  
Sea Level Pressure 30.19 in    
Wind  
Wind Speed 6 mph (East)    
Max Wind Speed 12 mph    
Max Gust Speed 17 mph    
Visibility 10 miles    
Events      
Averages and records for this station are not official NWS values.
T = Trace of Precipitation, MM = Missing Value Source: NWS Daily Summary

Daily Weather History Graph

Daily Weather History Graph

Search for Another Location

Airport or City:

Trip Planner

Search our weather history database for the weather conditions in past years. The results will help you decide how hot, cold, wet, or windy it might be!

Date:

Astronomy

Apr. 16, 2014 Rise Set
Actual Time 6:16 AM CDT 7:14 PM CDT
Civil Twilight 5:51 AM CDT 7:39 PM CDT
Nautical Twilight 5:21 AM CDT 8:09 PM CDT
Astronomical Twilight 4:51 AM CDT 8:39 PM CDT
Moon 8:52 PM CDT (4/16) 7:07 AM CDT (4/16)
Length of Visible Light 13h 48m
Length of Day
12h 58m
Full, 98% of the Moon is Illuminated
Apr 16
Full
Apr 22
Last Quarter
Apr 29
New
May 6
First Quarter
May 14
Full

Hourly Weather History & Observations

Time (CDT) Temp. Windchill Dew Point Humidity Pressure Visibility Wind Dir Wind Speed Gust Speed Precip Events Conditions
12:56 AM 46.0 °F 42.5 °F 34.0 °F 63% 30.17 in 10.0 mi NNE 6.9 mph - N/A   Clear
1:56 AM 43.0 °F 41.3 °F 34.0 °F 71% 30.16 in 10.0 mi NE 3.5 mph - N/A   Clear
2:56 AM 42.1 °F 37.7 °F 33.1 °F 70% 30.15 in 10.0 mi ENE 6.9 mph - N/A   Clear
3:56 AM 42.1 °F 38.4 °F 30.9 °F 65% 30.16 in 10.0 mi ENE 5.8 mph - N/A   Clear
4:56 AM 42.1 °F 37.7 °F 30.0 °F 62% 30.17 in 10.0 mi NE 6.9 mph - N/A   Clear
5:56 AM 39.9 °F 37.8 °F 30.9 °F 70% 30.18 in 10.0 mi ENE 3.5 mph - N/A   Clear
6:56 AM 39.9 °F 36.7 °F 30.0 °F 68% 30.19 in 10.0 mi ENE 4.6 mph - N/A   Clear
7:56 AM 45.0 °F 40.6 °F 30.0 °F 56% 30.21 in 10.0 mi East 8.1 mph - N/A   Clear
8:56 AM 48.9 °F - 30.9 °F 50% 30.23 in 10.0 mi ESE 11.5 mph - N/A   Clear
9:56 AM 53.1 °F - 32.0 °F 45% 30.25 in 10.0 mi SE 9.2 mph 17.3 mph N/A   Clear
10:56 AM 57.0 °F - 34.0 °F 42% 30.25 in 10.0 mi ESE 10.4 mph - N/A   Clear
11:56 AM 60.1 °F - 36.0 °F 41% 30.24 in 10.0 mi SE 8.1 mph 17.3 mph N/A   Clear
12:56 PM 63.0 °F - 35.1 °F 35% 30.21 in 10.0 mi SSE 8.1 mph - N/A   Clear
1:56 PM 66.0 °F - 36.0 °F 33% 30.19 in 10.0 mi East 11.5 mph 16.1 mph N/A   Clear
2:56 PM 68.0 °F - 36.0 °F 31% 30.15 in 10.0 mi Variable 5.8 mph 16.1 mph N/A   Clear
3:56 PM 69.1 °F - 35.1 °F 29% 30.14 in 10.0 mi East 9.2 mph - N/A   Clear
4:56 PM 70.0 °F - 34.0 °F 27% 30.14 in 10.0 mi SE 8.1 mph - N/A   Clear
5:56 PM 69.1 °F - 34.0 °F 27% 30.13 in 10.0 mi SSE 8.1 mph - N/A   Clear
6:56 PM 64.0 °F - 36.0 °F 35% 30.14 in 10.0 mi SSE 4.6 mph - N/A   Clear
7:56 PM 55.9 °F - 39.0 °F 53% 30.18 in 10.0 mi Calm Calm - N/A   Clear
8:56 PM 53.1 °F - 39.9 °F 61% 30.19 in 10.0 mi SE 3.5 mph - N/A   Clear
9:56 PM 52.0 °F - 41.0 °F 66% 30.20 in 10.0 mi Calm Calm - N/A   Clear
10:56 PM 51.1 °F - 41.0 °F 68% 30.21 in 10.0 mi ESE 3.5 mph - N/A   Clear
11:56 PM 52.0 °F - 41.0 °F 66% 30.21 in 10.0 mi ESE 8.1 mph - N/A   Clear